Location: *
(44.3925°N, 5.4708°E)
Time: 07:37:51
(UTC+00:00)

USA 234 - Pass Details

Date: 18 September 2019
Orbit: 1103 x 1105 km, 123.0° (Epoch: 17 October)

Event Time Altitude Azimuth Distance (km) Brightness Sun altitude
Exits shadow 22:00:32 41° 354° (N) 1,549 4.2 -39.6°
Drops below altitude 10° 22:05:23 10° 315° (NW) 2,967 6.1 -40.0°
Sets 22:07:58 0° 309° (NW) 3,927 6.9 -40.2°
